TimeAKST,TemperatureF,Dew PointF,Humidity,Sea Level PressureIn,VisibilityMPH,Wind Direction,Wind SpeedMPH,Gust SpeedMPH,PrecipitationIn,Events,Conditions,WindDirDegrees,DateUTC
12:20 AM,39.2,33.8,81,29.66,10.0,Variable,5.8,21.9,0.00,Rain,Light Rain,0,2013-02-20 09:20:00
12:53 AM,37.0,34.0,89,29.65,10.0,Calm,Calm,-,0.02,Rain,Light Rain,0,2013-02-20 09:53:00
1:07 AM,37.4,33.8,87,29.63,10.0,Variable,5.8,-,0.01,Rain,Light Rain,0,2013-02-20 10:07:00
1:42 AM,37.4,33.8,87,29.61,10.0,Variable,4.6,-,0.01,Rain,Light Rain,0,2013-02-20 10:42:00
1:53 AM,37.0,34.0,89,29.61,10.0,Variable,5.8,-,0.02,Rain,Light Rain,0,2013-02-20 10:53:00
2:10 AM,37.4,33.8,87,29.59,10.0,SSE,3.5,-,0.00,Rain,Light Rain,150,2013-02-20 11:10:00
3:28 AM,37.4,33.8,87,29.57,4.0,Variable,3.5,-,0.01,Rain,Light Rain,0,2013-02-20 12:28:00
3:53 AM,36.0,34.0,93,29.57,10.0,Variable,4.6,-,0.02,Rain,Light Rain,0,2013-02-20 12:53:00
4:53 AM,36.0,34.0,93,29.59,10.0,SSW,6.9,-,0.03,Rain,Light Rain,200,2013-02-20 13:53:00
5:53 AM,37.0,34.0,89,29.60,10.0,Variable,5.8,-,0.01,Rain,Light Rain,0,2013-02-20 14:53:00
6:53 AM,37.0,34.0,89,29.62,10.0,South,6.9,-,0.04,,Overcast,190,2013-02-20 15:53:00
7:53 AM,37.9,34.0,86,29.62,10.0,Variable,6.9,-,0.00,,Mostly Cloudy,0,2013-02-20 16:53:00
8:53 AM,37.9,34.0,86,29.63,10.0,Variable,5.8,-,0.00,,Overcast,0,2013-02-20 17:53:00
9:53 AM,39.9,35.1,83,29.64,10.0,South,4.6,-,0.00,,Overcast,180,2013-02-20 18:53:00
10:08 AM,39.2,33.8,81,29.63,9.0,South,4.6,-,0.00,Rain,Light Rain,180,2013-02-20 19:08:00
10:51 AM,39.2,35.6,87,29.64,10.0,SSW,6.9,-,0.02,,Overcast,200,2013-02-20 19:51:00
10:53 AM,39.0,36.0,89,29.64,10.0,SSW,6.9,-,0.02,,Overcast,200,2013-02-20 19:53:00
11:03 AM,37.4,33.8,87,29.64,6.0,SSW,6.9,17.3,0.01,Rain,Light Rain,200,2013-02-20 20:03:00
11:12 AM,37.4,35.6,93,29.64,10.0,SSW,6.9,-,0.01,,Mostly Cloudy,200,2013-02-20 20:12:00
11:36 AM,39.2,35.6,87,29.63,10.0,South,6.9,-,0.01,,Overcast,190,2013-02-20 20:36:00
12:17 PM,39.2,35.6,87,29.62,1.8,SSW,5.8,18.4,0.04,Rain,Rain,210,2013-02-20 21:17:00
12:26 PM,37.4,35.6,93,29.63,3.0,SSW,10.4,23.0,0.05,Rain,Light Rain,200,2013-02-20 21:26:00
12:53 PM,39.0,36.0,89,29.62,10.0,Variable,3.5,-,0.05,,Overcast,0,2013-02-20 21:53:00
1:53 PM,37.9,35.1,89,29.60,8.0,SSW,4.6,-,0.02,Rain,Light Rain,200,2013-02-20 22:53:00
2:07 PM,39.2,35.6,87,29.59,10.0,South,4.6,-,0.00,,Overcast,170,2013-02-20 23:07:00
2:53 PM,37.9,34.0,86,29.57,7.0,Variable,4.6,-,0.01,Rain,Light Rain,0,2013-02-20 23:53:00
3:46 PM,37.4,33.8,87,29.53,10.0,Variable,4.6,-,0.02,Rain,Light Rain,0,2013-02-21 00:46:00
4:49 PM,37.4,33.8,87,29.50,6.0,South,5.8,-,0.01,Rain,Light Rain,190,2013-02-21 01:49:00
4:53 PM,36.0,34.0,93,29.50,7.0,Variable,4.6,-,0.01,Rain,Light Rain,0,2013-02-21 01:53:00
5:53 PM,36.0,33.1,89,29.45,8.0,SSE,5.8,-,0.04,Rain,Light Rain,150,2013-02-21 02:53:00
6:53 PM,36.0,33.1,89,29.41,7.0,Variable,4.6,-,0.03,Rain,Light Rain,0,2013-02-21 03:53:00
7:53 PM,36.0,33.1,89,29.38,10.0,Variable,3.5,-,0.05,Rain,Light Rain,0,2013-02-21 04:53:00
8:53 PM,36.0,33.1,89,29.35,10.0,Variable,3.5,-,0.02,Rain,Light Rain,0,2013-02-21 05:53:00
9:26 PM,35.6,33.8,93,29.34,10.0,Variable,5.8,-,0.01,Rain,Light Rain,0,2013-02-21 06:26:00
9:53 PM,36.0,33.1,89,29.33,9.0,Variable,4.6,-,0.03,Rain,Light Rain,0,2013-02-21 06:53:00
10:49 PM,35.6,33.8,93,29.32,10.0,Variable,4.6,-,0.02,Rain,Light Rain,0,2013-02-21 07:49:00
10:53 PM,36.0,34.0,93,29.33,10.0,Variable,3.5,-,0.02,Rain,Light Rain,0,2013-02-21 07:53:00
11:40 PM,35.6,33.8,93,29.32,10.0,Calm,Calm,-,0.02,Rain,Light Rain,0,2013-02-21 08:40:00
11:51 PM,35.6,33.8,93,29.33,10.0,Calm,Calm,-,0.02,Rain,Light Rain,0,2013-02-21 08:51:00
11:53 PM,36.0,34.0,93,29.33,10.0,Calm,Calm,-,0.02,Rain,Light Rain,0,2013-02-21 08:53:00